DAH1020 DAAG-LFML

Flight info

Callsign DAH1020
Flight time 1h 11m
Altitude 34000
Route PECES DCT CHELY DCT LUMAS UM976 SOSUR
Aircraft B738/M-SDE2E3FGHIRWXY/LB1

Departure

Time 2026-04-28 07:46
Airport Houari Boumediene Airport (DAAG)

Arrival

Time 2026-04-28 08:58
Airport Marseille Provence Airport (LFML)
Time Latitude Longitude Altitude Speed Heading
2026-04-28 07:27 36.69761 3.20289 69 ft 0 kts 271°
2026-04-28 07:36 36.69761 3.20314 65 ft 2 kts 271°
2026-04-28 07:36 36.69764 3.20342 68 ft 4 kts 233°
2026-04-28 07:36 36.69783 3.20353 62 ft 4 kts 175°
2026-04-28 07:37 36.69810 3.20349 67 ft 3 kts 178°
2026-04-28 07:37 36.69794 3.20350 66 ft 4 kts 177°
2026-04-28 07:37 36.69767 3.20354 62 ft 4 kts 171°
2026-04-28 07:37 36.69750 3.20358 62 ft 0 kts 168°
2026-04-28 07:41 36.69748 3.20358 69 ft 1 kts 167°
2026-04-28 07:41 36.69715 3.20368 64 ft 8 kts 168°
2026-04-28 07:42 36.69658 3.20372 69 ft 8 kts 182°
2026-04-28 07:42 36.69602 3.20369 69 ft 8 kts 181°
2026-04-28 07:42 36.69547 3.20367 69 ft 8 kts 182°
2026-04-28 07:42 36.69493 3.20365 69 ft 8 kts 182°
2026-04-28 07:43 36.69450 3.20393 69 ft 8 kts 119°
2026-04-28 07:43 36.69443 3.20462 69 ft 9 kts 91°
2026-04-28 07:43 36.69441 3.20542 69 ft 10 kts 91°
2026-04-28 07:43 36.69440 3.20633 69 ft 11 kts 91°
2026-04-28 07:44 36.69437 3.20733 62 ft 12 kts 92°
2026-04-28 07:44 36.69433 3.20837 62 ft 12 kts 104°
2026-04-28 07:44 36.69366 3.20890 67 ft 12 kts 161°
2026-04-28 07:44 36.69289 3.20923 63 ft 12 kts 162°
2026-04-28 07:45 36.69214 3.20954 65 ft 11 kts 162°
2026-04-28 07:45 36.69140 3.20967 74 ft 11 kts 201°
2026-04-28 07:45 36.69116 3.20884 75 ft 11 kts 271°
2026-04-28 07:45 36.69121 3.20664 75 ft 56 kts 271°
2026-04-28 07:46 36.69139 3.19879 72 ft 126 kts 271°
2026-04-28 07:46 36.69174 3.18558 186 ft 171 kts 273°
2026-04-28 07:46 36.69212 3.17070 929 ft 171 kts 271°
2026-04-28 07:46 36.69241 3.15543 1620 ft 180 kts 270°
2026-04-28 07:47 36.69572 3.13989 2126 ft 203 kts 301°
2026-04-28 07:47 36.70762 3.12870 2365 ft 231 kts 344°
2026-04-28 07:47 36.72418 3.12894 2656 ft 249 kts 19°
2026-04-28 07:47 36.73898 3.14055 3109 ft 262 kts 47°
2026-04-28 07:48 36.75054 3.15949 3385 ft 287 kts 60°
2026-04-28 07:48 36.76047 3.18066 4297 ft 281 kts 61°
2026-04-28 07:48 36.76998 3.20166 5329 ft 278 kts 62°
2026-04-28 07:48 36.77940 3.22284 6113 ft 282 kts 62°
2026-04-28 07:49 36.79061 3.24310 6816 ft 288 kts 41°
2026-04-28 07:49 36.80732 3.25658 7616 ft 288 kts 25°
2026-04-28 07:49 36.82572 3.26670 8381 ft 290 kts 20°
2026-04-28 07:49 36.84475 3.27559 9169 ft 293 kts 18°
2026-04-28 07:50 36.86411 3.28399 9927 ft 296 kts 17°
2026-04-28 07:50 36.88370 3.29221 10372 ft 311 kts 16°
2026-04-28 07:50 36.90502 3.30097 10545 ft 334 kts 16°
2026-04-28 07:50 36.92779 3.31025 10814 ft 352 kts 15°
2026-04-28 07:51 36.95132 3.31980 11371 ft 358 kts 15°
2026-04-28 07:51 36.97514 3.32947 12106 ft 360 kts 15°
2026-04-28 07:51 36.99907 3.33918 12808 ft 364 kts 15°
2026-04-28 07:51 37.02332 3.34899 13530 ft 368 kts 15°
2026-04-28 07:52 37.04776 3.35888 14213 ft 371 kts 15°
2026-04-28 07:52 37.07222 3.36877 14837 ft 377 kts 15°
2026-04-28 07:52 37.09733 3.37893 15464 ft 382 kts 15°
2026-04-28 07:52 37.12281 3.38925 16113 ft 387 kts 16°
2026-04-28 07:53 37.14863 3.39971 16689 ft 393 kts 16°
2026-04-28 07:53 37.17472 3.41029 17382 ft 396 kts 16°
2026-04-28 07:53 37.20115 3.42101 17941 ft 403 kts 17°
2026-04-28 07:53 37.22800 3.43192 18572 ft 405 kts 17°
2026-04-28 07:54 37.25481 3.44282 19235 ft 407 kts 17°
2026-04-28 07:54 37.28157 3.45370 19731 ft 412 kts 17°
2026-04-28 07:54 37.30898 3.46485 20266 ft 416 kts 17°
2026-04-28 07:54 37.33657 3.47609 20840 ft 419 kts 17°
2026-04-28 07:55 37.36442 3.48745 21370 ft 423 kts 17°
2026-04-28 07:55 37.39249 3.49889 21903 ft 425 kts 17°
2026-04-28 07:55 37.42075 3.51043 22445 ft 429 kts 17°
2026-04-28 07:55 37.44930 3.52210 22929 ft 433 kts 17°
2026-04-28 07:56 37.47800 3.53384 23498 ft 435 kts 17°
2026-04-28 07:56 37.50687 3.54565 23906 ft 438 kts 17°
2026-04-28 07:56 37.53556 3.55739 24320 ft 441 kts 17°
2026-04-28 07:56 37.56480 3.56937 24753 ft 444 kts 17°
2026-04-28 07:57 37.59429 3.58147 25155 ft 446 kts 17°
2026-04-28 07:57 37.62387 3.59361 25605 ft 448 kts 17°
2026-04-28 07:57 37.65358 3.60582 25993 ft 451 kts 17°
2026-04-28 07:57 37.68351 3.61813 26363 ft 454 kts 17°
2026-04-28 07:58 37.71361 3.63052 26748 ft 456 kts 17°
2026-04-28 07:58 37.74384 3.64297 27156 ft 458 kts 17°
2026-04-28 07:58 37.77380 3.65532 27534 ft 460 kts 17°
2026-04-28 07:58 37.80430 3.66790 27894 ft 462 kts 17°
2026-04-28 07:59 37.83499 3.68058 28221 ft 466 kts 17°
2026-04-28 07:59 37.86585 3.69333 28563 ft 468 kts 17°
2026-04-28 07:59 37.89686 3.70616 28933 ft 469 kts 17°
2026-04-28 07:59 37.92793 3.71903 29280 ft 471 kts 17°
2026-04-28 08:00 37.95906 3.73193 29630 ft 473 kts 17°
2026-04-28 08:00 37.99031 3.74490 30066 ft 472 kts 17°
2026-04-28 08:00 38.02144 3.75784 30493 ft 470 kts 17°
2026-04-28 08:00 38.05202 3.77057 30878 ft 469 kts 17°
2026-04-28 08:01 38.08304 3.78349 31210 ft 469 kts 17°
2026-04-28 08:01 38.11408 3.79644 31512 ft 469 kts 17°
2026-04-28 08:01 38.14507 3.80938 31844 ft 469 kts 17°
2026-04-28 08:01 38.17610 3.82235 32183 ft 469 kts 17°
2026-04-28 08:02 38.20718 3.83535 32525 ft 469 kts 17°
2026-04-28 08:02 38.23816 3.84832 32857 ft 469 kts 17°
2026-04-28 08:02 38.26914 3.86130 33198 ft 469 kts 17°
2026-04-28 08:02 38.29968 3.87411 33531 ft 468 kts 16°
2026-04-28 08:03 38.33059 3.88709 33856 ft 468 kts 16°
2026-04-28 08:03 38.36158 3.90011 34001 ft 471 kts 16°
2026-04-28 08:03 38.42410 3.92642 33998 ft 472 kts 16°
2026-04-28 08:04 38.48600 3.95209 33987 ft 464 kts 12°
2026-04-28 08:04 38.54918 3.96740 34008 ft 461 kts
2026-04-28 08:05 38.61229 3.97875 34012 ft 462 kts
2026-04-28 08:05 38.67584 3.99069 34013 ft 462 kts
2026-04-28 08:06 38.73939 4.00350 34018 ft 462 kts
2026-04-28 08:06 38.80293 4.01670 34017 ft 462 kts
2026-04-28 08:07 38.86638 4.02995 34021 ft 462 kts
2026-04-28 08:07 38.92985 4.04320 34024 ft 462 kts
2026-04-28 08:08 38.99322 4.05644 34026 ft 461 kts
2026-04-28 08:08 39.05645 4.06966 34030 ft 460 kts
2026-04-28 08:09 39.11959 4.08289 34031 ft 459 kts
2026-04-28 08:09 39.18219 4.09603 34036 ft 459 kts
2026-04-28 08:10 39.24518 4.10927 34040 ft 458 kts
2026-04-28 08:10 39.30803 4.12251 34045 ft 457 kts
2026-04-28 08:11 39.37073 4.13574 34044 ft 456 kts
2026-04-28 08:11 39.43340 4.14899 34047 ft 456 kts
2026-04-28 08:12 39.49601 4.16225 34050 ft 455 kts
2026-04-28 08:12 39.55851 4.17551 34055 ft 455 kts
2026-04-28 08:13 39.62095 4.18879 34060 ft 454 kts
2026-04-28 08:13 39.68332 4.20207 34053 ft 454 kts
2026-04-28 08:14 39.74565 4.21537 34050 ft 454 kts
2026-04-28 08:14 39.80786 4.22867 34048 ft 454 kts
2026-04-28 08:15 39.87017 4.24201 34054 ft 454 kts
2026-04-28 08:15 39.93251 4.25538 34056 ft 454 kts
2026-04-28 08:16 39.99486 4.26878 34049 ft 454 kts
2026-04-28 08:16 40.05729 4.28223 34054 ft 454 kts
2026-04-28 08:17 40.11965 4.29568 34063 ft 454 kts
2026-04-28 08:17 40.18189 4.30914 34066 ft 454 kts
2026-04-28 08:18 40.24416 4.32262 34068 ft 453 kts
2026-04-28 08:18 40.30635 4.33611 34077 ft 453 kts
2026-04-28 08:19 40.36853 4.34963 34079 ft 453 kts
2026-04-28 08:19 40.43065 4.36315 34078 ft 452 kts
2026-04-28 08:20 40.49229 4.37660 34080 ft 452 kts
2026-04-28 08:20 40.55437 4.39017 34080 ft 452 kts
2026-04-28 08:21 40.61634 4.40374 34080 ft 452 kts
2026-04-28 08:21 40.67832 4.41734 34082 ft 451 kts
2026-04-28 08:22 40.74023 4.43095 34083 ft 451 kts
2026-04-28 08:22 40.80208 4.44457 34087 ft 451 kts
2026-04-28 08:23 40.85347 4.45591 34039 ft 450 kts
2026-04-28 08:23 40.91528 4.46957 34040 ft 450 kts
2026-04-28 08:24 40.97709 4.48326 34045 ft 450 kts
2026-04-28 08:24 41.03882 4.49695 34046 ft 450 kts
2026-04-28 08:25 41.10050 4.51087 34044 ft 450 kts
2026-04-28 08:26 41.19276 4.53354 34043 ft 449 kts
2026-04-28 08:26 41.25422 4.54874 34045 ft 449 kts
2026-04-28 08:27 41.31565 4.56385 34042 ft 449 kts
2026-04-28 08:27 41.37706 4.57894 34042 ft 449 kts
2026-04-28 08:28 41.43847 4.59406 34048 ft 448 kts
2026-04-28 08:28 41.49977 4.60918 34045 ft 448 kts
2026-04-28 08:29 41.56111 4.62434 34050 ft 448 kts
2026-04-28 08:29 41.62238 4.63952 34046 ft 448 kts
2026-04-28 08:30 41.68324 4.65462 34005 ft 448 kts
2026-04-28 08:30 41.71408 4.66227 33394 ft 453 kts
2026-04-28 08:30 41.74482 4.67083 32779 ft 451 kts 12°
2026-04-28 08:30 41.77492 4.68198 32376 ft 446 kts 13°
2026-04-28 08:31 41.80450 4.69381 31884 ft 442 kts 14°
2026-04-28 08:31 41.83378 4.70580 31426 ft 438 kts 14°
2026-04-28 08:31 41.86280 4.71768 30969 ft 434 kts 14°
2026-04-28 08:31 41.89161 4.72936 30513 ft 431 kts 14°
2026-04-28 08:32 41.92023 4.74086 30056 ft 428 kts 14°
2026-04-28 08:32 41.94870 4.75221 29524 ft 425 kts 14°
2026-04-28 08:32 41.97693 4.76343 29034 ft 421 kts 14°
2026-04-28 08:32 42.00484 4.77451 28560 ft 416 kts 14°
2026-04-28 08:33 42.03245 4.78548 28102 ft 413 kts 14°
2026-04-28 08:33 42.05989 4.79638 27632 ft 409 kts 14°
2026-04-28 08:33 42.08710 4.80720 27179 ft 406 kts 14°
2026-04-28 08:33 42.11408 4.81795 26730 ft 403 kts 14°
2026-04-28 08:34 42.14085 4.82862 26267 ft 400 kts 14°
2026-04-28 08:34 42.16750 4.83925 25835 ft 398 kts 14°
2026-04-28 08:34 42.19396 4.84982 25394 ft 396 kts 14°
2026-04-28 08:34 42.22032 4.86036 24952 ft 394 kts 14°
2026-04-28 08:35 42.24653 4.87084 24499 ft 393 kts 14°
2026-04-28 08:35 42.27268 4.88131 24055 ft 392 kts 14°
2026-04-28 08:35 42.29877 4.89176 23598 ft 391 kts 14°
2026-04-28 08:35 42.32479 4.90220 23091 ft 389 kts 14°
2026-04-28 08:36 42.35067 4.91260 22634 ft 387 kts 14°
2026-04-28 08:36 42.37635 4.92292 22180 ft 384 kts 14°
2026-04-28 08:36 42.40185 4.93318 21734 ft 381 kts 14°
2026-04-28 08:36 42.42717 4.94338 21304 ft 378 kts 14°
2026-04-28 08:37 42.45228 4.95349 20883 ft 376 kts 14°
2026-04-28 08:37 42.47728 4.96358 20466 ft 373 kts 14°
2026-04-28 08:37 42.50208 4.97358 20041 ft 371 kts 14°
2026-04-28 08:37 42.52674 4.98354 19629 ft 369 kts 14°
2026-04-28 08:38 42.55127 4.99345 19216 ft 367 kts 14°
2026-04-28 08:38 42.57575 5.00058 18803 ft 363 kts
2026-04-28 08:38 42.60121 5.00346 18408 ft 362 kts
2026-04-28 08:38 42.62637 5.00549 17950 ft 363 kts
2026-04-28 08:39 42.65152 5.00756 17515 ft 362 kts
2026-04-28 08:39 42.67657 5.00988 17103 ft 359 kts
2026-04-28 08:39 42.70107 5.01236 16707 ft 357 kts
2026-04-28 08:39 42.72577 5.01499 16311 ft 355 kts
2026-04-28 08:40 42.75030 5.01766 15916 ft 353 kts
2026-04-28 08:40 42.77469 5.02032 15526 ft 351 kts
2026-04-28 08:40 42.79888 5.02330 15134 ft 349 kts
2026-04-28 08:40 42.82174 5.03376 14825 ft 346 kts 25°
2026-04-28 08:41 42.84302 5.04864 14550 ft 342 kts 27°
2026-04-28 08:41 42.86398 5.06358 14261 ft 339 kts 26°
2026-04-28 08:41 42.88493 5.07824 13980 ft 338 kts 26°
2026-04-28 08:41 42.90592 5.09269 13674 ft 337 kts 26°
2026-04-28 08:42 42.92689 5.10685 13357 ft 336 kts 22°
2026-04-28 08:42 42.94947 5.11383 13056 ft 333 kts
2026-04-28 08:42 42.97231 5.10981 12804 ft 332 kts 346°
2026-04-28 08:42 42.99468 5.10212 12522 ft 332 kts 344°
2026-04-28 08:43 43.01697 5.09398 12228 ft 331 kts 344°
2026-04-28 08:43 43.03922 5.08585 11940 ft 330 kts 344°
2026-04-28 08:43 43.06138 5.07787 11664 ft 328 kts 344°
2026-04-28 08:43 43.08341 5.07005 11402 ft 327 kts 345°
2026-04-28 08:44 43.10531 5.06235 11122 ft 323 kts 345°
2026-04-28 08:44 43.12692 5.05478 10858 ft 317 kts 345°
2026-04-28 08:44 43.14812 5.04737 10581 ft 312 kts 345°
2026-04-28 08:44 43.16891 5.04011 10319 ft 306 kts 345°
2026-04-28 08:45 43.18938 5.03295 10077 ft 301 kts 345°
2026-04-28 08:45 43.20933 5.02644 10025 ft 288 kts 351°
2026-04-28 08:45 43.22859 5.02401 9919 ft 278 kts 356°
2026-04-28 08:45 43.24864 5.02309 9419 ft 284 kts 358°
2026-04-28 08:46 43.26827 5.02221 9161 ft 280 kts 357°
2026-04-28 08:46 43.28764 5.02106 8853 ft 278 kts 357°
2026-04-28 08:46 43.30680 5.01975 8611 ft 274 kts 356°
2026-04-28 08:46 43.32571 5.01839 8376 ft 270 kts 356°
2026-04-28 08:47 43.34440 5.01772 8145 ft 267 kts
2026-04-28 08:47 43.36291 5.01865 7930 ft 266 kts
2026-04-28 08:47 43.38143 5.01977 7714 ft 266 kts
2026-04-28 08:47 43.39992 5.02080 7482 ft 266 kts
2026-04-28 08:48 43.41837 5.02173 7261 ft 266 kts
2026-04-28 08:48 43.43638 5.01693 6961 ft 268 kts 334°
2026-04-28 08:48 43.45130 5.00182 6584 ft 273 kts 316°
2026-04-28 08:48 43.46493 4.98340 6138 ft 277 kts 315°
2026-04-28 08:49 43.47877 4.96460 5696 ft 281 kts 315°
2026-04-28 08:49 43.49283 4.94567 5257 ft 284 kts 315°
2026-04-28 08:49 43.50685 4.92686 5097 ft 276 kts 315°
2026-04-28 08:49 43.52035 4.90882 5075 ft 264 kts 316°
2026-04-28 08:50 43.53348 4.89129 5073 ft 261 kts 316°
2026-04-28 08:50 43.54632 4.87416 5067 ft 253 kts 316°
2026-04-28 08:50 43.55951 4.85892 5059 ft 243 kts 333°
2026-04-28 08:50 43.57555 4.85385 5082 ft 237 kts
2026-04-28 08:51 43.59114 4.86014 5081 ft 233 kts 31°
2026-04-28 08:51 43.60309 4.87480 5086 ft 230 kts 54°
2026-04-28 08:51 43.61168 4.89329 4960 ft 232 kts 60°
2026-04-28 08:51 43.61960 4.91253 4768 ft 228 kts 65°
2026-04-28 08:52 43.62237 4.93334 4564 ft 221 kts 103°
2026-04-28 08:52 43.61567 4.95163 4462 ft 210 kts 127°
2026-04-28 08:52 43.60727 4.96762 4298 ft 201 kts 127°
2026-04-28 08:52 43.59885 4.98251 4253 ft 199 kts 131°
2026-04-28 08:53 43.58946 4.99696 4012 ft 203 kts 133°
2026-04-28 08:53 43.57977 5.01101 3752 ft 200 kts 134°
2026-04-28 08:53 43.57015 5.02475 3491 ft 198 kts 134°
2026-04-28 08:53 43.56064 5.03828 3245 ft 195 kts 134°
2026-04-28 08:54 43.55129 5.05160 2979 ft 192 kts 134°
2026-04-28 08:54 43.54206 5.06474 2724 ft 188 kts 134°
2026-04-28 08:54 43.53326 5.07732 2479 ft 176 kts 134°
2026-04-28 08:54 43.52501 5.08906 2239 ft 166 kts 134°
2026-04-28 08:55 43.51718 5.10020 2025 ft 159 kts 134°
2026-04-28 08:55 43.50953 5.11112 1816 ft 158 kts 134°
2026-04-28 08:55 43.50212 5.12170 1638 ft 152 kts 134°
2026-04-28 08:55 43.49477 5.13217 1414 ft 151 kts 134°
2026-04-28 08:56 43.48757 5.14250 1193 ft 148 kts 134°
2026-04-28 08:56 43.48051 5.15258 982 ft 148 kts 134°
2026-04-28 08:56 43.47324 5.16294 782 ft 149 kts 134°
2026-04-28 08:56 43.46610 5.17311 565 ft 150 kts 134°
2026-04-28 08:57 43.45888 5.18342 365 ft 149 kts 134°
2026-04-28 08:57 43.45174 5.19362 196 ft 148 kts 134°
2026-04-28 08:57 43.44461 5.20380 42 ft 143 kts 134°
2026-04-28 08:57 43.43840 5.21264 36 ft 109 kts 134°
2026-04-28 08:58 43.43436 5.21840 34 ft 35 kts 134°
2026-04-28 08:58 43.43346 5.21997 34 ft 16 kts 111°
2026-04-28 08:58 43.43332 5.22131 36 ft 8 kts 89°
2026-04-28 08:58 43.43338 5.22210 36 ft 8 kts 75°
2026-04-28 08:59 43.43370 5.22272 36 ft 8 kts 33°
2026-04-28 08:59 43.43422 5.22279 36 ft 8 kts 343°
2026-04-28 08:59 43.43469 5.22246 34 ft 7 kts 330°
2026-04-28 08:59 43.43514 5.22211 36 ft 7 kts 329°
2026-04-28 09:00 43.43556 5.22177 36 ft 7 kts 329°
2026-04-28 09:00 43.43598 5.22144 36 ft 7 kts 329°
2026-04-28 09:00 43.43639 5.22112 36 ft 7 kts 336°
2026-04-28 09:00 43.43682 5.22118 35 ft 7 kts 35°
2026-04-28 09:01 43.43711 5.22167 36 ft 6 kts 49°
2026-04-28 09:01 43.43743 5.22210 36 ft 6 kts 43°
2026-04-28 09:01 43.43773 5.22230 36 ft 4 kts
2026-04-28 09:01 43.43788 5.22227 36 ft 3 kts 356°
2026-04-28 09:02 43.43804 5.22251 35 ft 3 kts 68°
2026-04-28 09:02 43.43810 5.22275 36 ft 3 kts 73°
2026-04-28 09:02 43.43814 5.22296 35 ft 2 kts 74°
2026-04-28 09:02 43.43816 5.22308 36 ft 1 kts 74°
2026-04-28 09:03 43.43818 5.22316 36 ft 1 kts 74°
2026-04-28 09:03 43.43819 5.22319 36 ft 0 kts 74°